Skip Page Navigation
NASA JPL Caltech
NASA Logo - Jet Propulsion Laboratory + View the NASA Portal
+ Center for Near-Earth Object Studies
JPL Home Earth Solar System Stars & Galaxies Technology
JPL Solar System Dynamics
BODIES ORBITS EPHEMERIDES TOOLS PHYSICAL DATA DISCOVERY FAQ SITE MAP
IMPORTANT: The SSD Announcement email list is now available. Major changes are coming in the near future, including possible hostname and/or URL changes. To be notified of such changes, subscribe to this email list.

Please visit this page for more details.


JPL Small-Body Database Browser
Search: [ help ]  
324628 (2007 BY6)
Classification: Main-belt Asteroid          SPK-ID: 2324628
Ephemeris | Orbit Diagram | Orbital Elements | Mission Design | Physical Parameters | Discovery Circumstances | Close-Approach Data ]

[ show orbit diagram ]
Orbital Elements at Epoch 2458600.5 (2019-Apr-27.0) TDB
Reference: JPL 10 (heliocentric ecliptic J2000)
 Element Value Uncertainty (1-sigma)   Units 
e .1948263431693392 1.0656e-07  
a 2.79605329274994 6.5735e-08 au
q 2.25130845441688 2.5819e-07 au
i 12.37901931922257 6.8227e-06 deg
node 148.631054349318 3.1862e-05 deg
peri 3.156947188957615 5.3332e-05 deg
M 220.0860301730832 5.935e-05 deg
tp 2459264.205126932580
(2021-Feb-18.70512693)
0.000304 TDB
period 1707.719722278673
4.68
6.0223e-05
1.649e-07
d
yr
n .2108074265955298 7.4341e-09 deg/d
Q 3.340798131083001 7.8542e-08 au
  Orbit Determination Parameters
   # obs. used (total)      195  
   data-arc span      4709 days (12.89 yr)  
   first obs. used      2005-09-21  
   last obs. used      2018-08-13  
   planetary ephem.      DE431  
   SB-pert. ephem.      SB431-N16  
   condition code      0  
   norm. resid. RMS      .58284  
   source      ORB  
   producer      Otto Matic  
   solution date      2019-Jul-14 08:49:50  

Additional Information
 Earth MOID = 1.26283 au 
 Jupiter MOID = 1.66256 au 
 T_jup = 3.266 
[ show covariance matrix ]

Ephemeris | Orbit Diagram | Orbital Elements | Mission Design | Physical Parameters | Discovery Circumstances | Close-Approach Data ]

Physical Parameter Table
Parameter Symbol Value Units Sigma Reference Notes
absolute magnitude H 16.0   n/a MPO418667  

324628 (2007 BY6)          Discovered 2007-Jan-17 by Mt. Lemmon Survey at Mount Lemmon
Reference: 20120406/Numbers.arcLast Updated: 2012-04-09

[ show close-approach data ]
Ephemeris | Orbit Diagram | Orbital Elements | Mission Design | Physical Parameters | Discovery Circumstances | Close-Approach Data ]
ABOUT SSD CREDITS/AWARDS PRIVACY/COPYRIGHT GLOSSARY LINKS
FirstGov
(server date/time)  
NASA Home Page
Site Manager:   Ryan S. Park
Webmaster  Alan B. Chamberlin